Tulsa, OK

12:00 AM CDT on April 28, 2017 (GMT -0500)
Tulsa International

Weather History for KTUL - February, 2012

Change the Weather History Date:

Saturday, February 11, 2012

  Actual Average Record
Temperature  
Mean Temperature 24 °F 41 °F  
Max Temperature 30 °F 52 °F 86 °F (2017)
Min Temperature 17 °F 30 °F -3 °F (1981)
Degree Days  
Heating Degree Days 41 24  
Month to date heating degree days 249 275  
Since 1 July heating degree days 2159 2548  
Moisture  
Dew Point 6 °F    
Average Humidity 48    
Maximum Humidity 61    
Minimum Humidity 35    
Precipitation  
Precipitation 0.00 in 0.07 in 1.18 in (1977)
Month to date precipitation 0.96 0.64  
Year to date precipitation 1.57 2.30  
Sea Level Pressure  
Sea Level Pressure 30.66 in    
Wind  
Wind Speed 11 mph (North)    
Max Wind Speed 21 mph    
Max Gust Speed 25 mph    
Visibility 10 miles    
Events      
T = Trace of Precipitation, MM = Missing Value Source: NWS Daily Summary

Daily Weather History Graph

Daily Weather History Graph

Search for Another Location

Airport or City:

Trip Planner

Search our weather history database for the weather conditions in past years. The results will help you decide how hot, cold, wet, or windy it might be!

Date:

Astronomy

Feb. 11, 2012 Rise Set
Actual Time 7:15 AM CST 6:00 PM CST
Civil Twilight 6:49 AM CST 6:26 PM CST
Nautical Twilight 6:19 AM CST 6:57 PM CST
Astronomical Twilight 5:49 AM CST 7:26 PM CST
Moon 10:38 PM CST (2/11) 9:08 AM CST (2/11)
Length of Visible Light 11h 37m
Length of Day
10h 44m
Waning Gibbous, 82% of the Moon is Illuminated
Feb 11
Waning Gibbous
Feb 14
Last Quarter
Feb 21
New
Feb 29
First Quarter
Mar 8
Full

Hourly Weather History & Observations

Time (CST) Temp. Windchill Dew Point Humidity Pressure Visibility Wind Dir Wind Speed Gust Speed Precip Events Conditions
12:53 AM 21.0 °F 7.1 °F 8.1 °F 57% 30.47 in 10.0 mi North 16.1 mph - N/A   Clear
1:53 AM 19.9 °F 6.7 °F 6.1 °F 55% 30.54 in 10.0 mi North 13.8 mph 25.3 mph N/A   Clear
2:53 AM 19.0 °F 7.5 °F 7.0 °F 59% 30.56 in 10.0 mi North 10.4 mph - N/A   Clear
3:53 AM 18.0 °F 5.4 °F 7.0 °F 62% 30.60 in 10.0 mi NNW 11.5 mph - N/A   Partly Cloudy
4:53 AM 18.0 °F 4.8 °F 6.1 °F 60% 30.62 in 10.0 mi North 12.7 mph 21.9 mph N/A   Overcast
5:53 AM 18.0 °F 2.6 °F 7.0 °F 62% 30.64 in 10.0 mi NNW 17.3 mph - N/A   Overcast
6:53 AM 17.1 °F 2.0 °F 3.9 °F 56% 30.68 in 10.0 mi North 16.1 mph - N/A   Overcast
7:53 AM 18.0 °F 3.1 °F 5.0 °F 57% 30.69 in 10.0 mi North 16.1 mph - N/A   Overcast
8:53 AM 18.0 °F 3.1 °F 3.9 °F 54% 30.74 in 10.0 mi North 16.1 mph - N/A   Overcast
9:53 AM 19.9 °F 7.9 °F 5.0 °F 52% 30.73 in 10.0 mi North 11.5 mph - N/A   Mostly Cloudy
10:53 AM 21.9 °F 9.8 °F 6.1 °F 51% 30.76 in 10.0 mi North 12.7 mph 19.6 mph N/A   Scattered Clouds
11:53 AM 24.1 °F 12.5 °F 7.0 °F 48% 30.76 in 10.0 mi North 12.7 mph 18.4 mph N/A   Scattered Clouds
12:53 PM 27.0 °F 15.6 °F 6.1 °F 41% 30.74 in 10.0 mi North 13.8 mph - N/A   Clear
1:53 PM 28.0 °F 17.5 °F 5.0 °F 38% 30.70 in 10.0 mi North 12.7 mph 21.9 mph N/A   Clear
2:53 PM 28.9 °F 18.2 °F 6.1 °F 38% 30.67 in 10.0 mi North 13.8 mph 21.9 mph N/A   Clear
3:53 PM 30.0 °F 19.5 °F 7.0 °F 38% 30.65 in 10.0 mi NNE 13.8 mph 19.6 mph N/A   Clear
4:53 PM 28.9 °F 17.7 °F 6.1 °F 38% 30.65 in 10.0 mi NE 15.0 mph 19.6 mph N/A   Clear
5:53 PM 28.0 °F 19.3 °F 5.0 °F 38% 30.67 in 10.0 mi NE 9.2 mph - N/A   Clear
6:53 PM 26.1 °F 19.4 °F 6.1 °F 43% 30.67 in 10.0 mi NE 5.8 mph - N/A   Clear
7:53 PM 24.1 °F - 6.1 °F 46% 30.69 in 10.0 mi Calm Calm - N/A   Clear
8:53 PM 21.9 °F 13.4 °F 9.0 °F 58% 30.69 in 10.0 mi North 6.9 mph - N/A   Clear
9:53 PM 23.0 °F 18.4 °F 7.0 °F 50% 30.72 in 10.0 mi NNW 3.5 mph - N/A   Clear
10:53 PM 23.0 °F 15.8 °F 9.0 °F 55% 30.69 in 10.0 mi North 5.8 mph - N/A   Clear
11:53 PM 21.9 °F 17.2 °F 9.0 °F 58% 30.68 in 10.0 mi NNE 3.5 mph - N/A   Clear